Weather Roundup
Issued by NWS Chicago, IL

Home | Current Version | Previous Version | Graphics & Text | Print | Product List | Glossary On
Versions: 1 2 3 4 5 6 7 8 9 10 11 12 13 14 15 16 17 18 19 20 21 22 23 24 25 26 27 28 29 30 31 32 33 34 35 36 37 38 39 40 41 42 43 44 45 46 47 48 49 50
000
NZUS59 KLOT 270021
HRRLOT

CHICAGO AREA WEATHER ROUNDUP
NATIONAL WEATHER SERVICE CHICAGO/ROMEOVILLE IL
700 PM CDT THU MAR 26 2015

NOTE: "FAIR" INDICATES FEW OR NO CLOUDS BELOW 12,000 FEET WITH NO
SIGNIFICANT WEATHER AND/OR OBSTRUCTIONS TO VISIBILITY.

* THESE STATIONS ARE NOT UNDER NWS QUALITY CONTROL. THEY ALSO MAY NOT
  REPORT WEATHER SUCH AS PRECIPITATION OR FOG.

ILZ005-006-012>014-019>023-270100-
NORTHEAST ILLINOIS

CITY           SKY/WX    TMP DP  RH WIND       PRES   REMARKS
OHARE          CLOUDY    37  21  52 NW12      30.00S
6HR MIN TEMP:  37; 6HR MAX TEMP:  42;

MIDWAY         MOCLDY    40  22  48 NW12      30.00S
6HR MIN TEMP:  40; 6HR MAX TEMP:  46;

AURORA         CLOUDY    37  24  59 NW13      30.01S
6HR MIN TEMP:  37; 6HR MAX TEMP:  43;

LANSING*       CLOUDY    37  23  57 NE7       30.00R
JOLIET*        MOCLDY    39  23  53 N7        30.01S
WAUKEGAN       CLOUDY    35  22  58 NW5       30.00S WCI  31
6HR MIN TEMP:  35; 6HR MAX TEMP:  40;

DUPAGE AIRPORT CLOUDY    37  23  56 N13       30.00S
6HR MIN TEMP:  37; 6HR MAX TEMP:  42;

WHEELING       CLOUDY    36  22  56 NW10      30.02S
6HR MIN TEMP:  36; 6HR MAX TEMP:  43;

KANKAKEE*      CLEAR     39  24  55 NW13      30.01R
MORRIS*        PTCLDY    37  26  62 N7        30.00S
LEWIS AIRPORT* MOCLDY    37  22  54 N9        30.00F
NORTHERLY IS     N/A     37  26  65 W3          N/A
$$

WIZ051-052-058>065-066-070>072-270100-
SOUTHEAST WISCONSIN

CITY           SKY/WX    TMP DP  RH WIND       PRES   REMARKS
MILWAUKEE      CLOUDY    34  16  47 NW12      30.02R WCI  25
6HR MIN TEMP:  34; 6HR MAX TEMP:  38;

KENOSHA*       CLOUDY    35  22  58 N9        30.01R WCI  28
RACINE*        CLOUDY    34  19  54 N10       30.03R WCI  26
BURLINGTON     CLOUDY    32  20  62 N6        30.02R WCI  26
WAUKESHA       CLOUDY    30  18  59 NW14      30.03R WCI  20
WEST BEND      CLOUDY    30  18  59 NW14      30.03R WCI  20
$$

INZ001>003-010>013-019-020-270100-
NORTHWEST INDIANA

CITY           SKY/WX    TMP DP  RH WIND       PRES   REMARKS
GARY*          MOCLDY    37  23  56 NE5       30.01S
MICHIGAN CITY* NOT AVBL
RENSSELAER*    NOT AVBL
VALPARAISO     CLOUDY    35  23  61 N8        29.99S WCI  29
$$

LMZ740>746-270100-
SOUTHERN LAKE MICHIGAN

STATION/POSITION TIME  SKY/WX   TEMP WIND        PRES    VSBY
                                AIR  DIR/SP/G
                 (UTC)          (F)  (DEG/KT/KT) (MB)    (MI)
HARRISON CRIB    0000            35  360/ 17/ 20   N/A
BURNHAM HARBOR   0000            38  330/  7       N/A
CALUMET HARBOR   2300            36   20/  6/  7 1014.8R
BURNS HARBOR     2300            35   30/  6/  7 1016.3S
MICHIGAN CITY    0000            34  350/ 11/ 14   N/A
$$

ABBREVIATIONS USED IN REMARKS
   TC - TEMPERATURE IN CELSIUS
  WCI - WIND CHILL INDEX
   HX - HEAT INDEX
  VSB - VISIBILITY
$$


USA.gov is the U.S. government's official web portal to all federal, state and local government web resources and services.